Alliance, NE

4:23 AM MDT on September 26, 2017 (GMT -0600)
Alliance Municipal

Weather History for KAIA - May, 2014

Change the Weather History Date:

Friday, May 2, 2014

  Actual Average Record
Temperature  
Mean Temperature 50 °F 50 °F  
Max Temperature 75 °F 65 °F 86 °F (1981)
Min Temperature 25 °F 34 °F 12 °F (2005)
Degree Days  
Heating Degree Days 15 16  
Month to date heating degree days 38 16  
Since 1 July heating degree days 7121 6905  
Cooling Degree Days 0 0  
Month to date cooling degree days 0 0  
Year to date cooling degree days 0 0  
Moisture  
Dew Point 34 °F    
Average Humidity 59    
Maximum Humidity 92    
Minimum Humidity 26    
Precipitation  
Precipitation 0.00 in 0.09 in 1.16 in (1988)
Month to date precipitation 0.00 0.09  
Year to date precipitation 2.80 2.95  
Sea Level Pressure  
Sea Level Pressure 29.92 in    
Wind  
Wind Speed 9 mph (NW)    
Max Wind Speed 22 mph    
Max Gust Speed 27 mph    
Visibility 10 miles    
Events      
T = Trace of Precipitation, MM = Missing Value Source: NWS Daily Summary

Daily Weather History Graph

Daily Weather History Graph

Search for Another Location

Airport or City:

Trip Planner

Search our weather history database for the weather conditions in past years. The results will help you decide how hot, cold, wet, or windy it might be!

Date:

Astronomy

May. 02, 2014 Rise Set
Actual Time 5:45 AM MDT 7:51 PM MDT
Civil Twilight 5:15 AM MDT 8:22 PM MDT
Nautical Twilight 4:37 AM MDT 8:59 PM MDT
Astronomical Twilight 3:56 AM MDT 9:40 PM MDT
Moon 8:23 AM MDT (5/2) 11:16 PM MDT (5/2)
Length of Visible Light 15h 06m
Length of Day
14h 05m
Waxing Crescent, 13% of the Moon is Illuminated
May 2
Waxing Crescent
May 6
First Quarter
May 14
Full
May 21
Last Quarter
May 28
New

Hourly Weather History & Observations

Time (MDT) Temp. Windchill Dew Point Humidity Pressure Visibility Wind Dir Wind Speed Gust Speed Precip Events Conditions
12:53 AM 28.9 °F 21.1 °F 25.0 °F 85% 30.08 in 10.0 mi West 8.1 mph - N/A   Clear
1:53 AM 27.0 °F 18.7 °F 24.1 °F 89% 30.06 in 10.0 mi West 8.1 mph - N/A   Clear
2:53 AM 27.0 °F 19.5 °F 24.1 °F 89% 30.05 in 10.0 mi WNW 6.9 mph - N/A   Clear
3:53 AM 26.1 °F 21.9 °F 23.0 °F 88% 30.04 in 10.0 mi WSW 3.5 mph - N/A   Clear
4:53 AM 26.1 °F 18.4 °F 23.0 °F 88% 30.02 in 10.0 mi West 6.9 mph - N/A   Scattered Clouds
5:53 AM 26.1 °F 18.4 °F 23.0 °F 88% 30.01 in 10.0 mi West 6.9 mph - N/A   Clear
6:53 AM 32.0 °F 25.6 °F 28.0 °F 85% 29.98 in 10.0 mi West 6.9 mph - N/A   Clear
7:53 AM 42.1 °F 36.1 °F 32.0 °F 67% 29.96 in 10.0 mi West 10.4 mph - N/A   Clear
8:53 AM 55.9 °F - 35.1 °F 45% 29.93 in 10.0 mi WNW 13.8 mph - N/A   Clear
9:53 AM 63.0 °F - 35.1 °F 35% 29.92 in 10.0 mi NW 10.4 mph - N/A   Clear
10:53 AM 69.1 °F - 34.0 °F 27% 29.88 in 10.0 mi WNW 17.3 mph 25.3 mph N/A   Clear
11:53 AM 71.6 °F - 35.6 °F 27% 29.90 in 10.0 mi WNW 15.0 mph 20.7 mph N/A   Clear
12:53 PM 71.1 °F - 36.0 °F 28% 29.84 in 10.0 mi NW 12.7 mph 21.9 mph N/A   Mostly Cloudy
1:53 PM 73.9 °F - 37.9 °F 27% 29.82 in 10.0 mi NNW 16.1 mph 25.3 mph N/A   Mostly Cloudy
2:53 PM 72.0 °F - 39.0 °F 30% 29.83 in 10.0 mi North 15.0 mph - N/A   Partly Cloudy
3:53 PM 71.1 °F - 39.9 °F 32% 29.83 in 10.0 mi North 12.7 mph - N/A   Clear
4:53 PM 72.0 °F - 39.0 °F 30% 29.82 in 10.0 mi North 12.7 mph - N/A   Clear
5:53 PM 70.0 °F - 41.0 °F 35% 29.83 in 10.0 mi North 8.1 mph - N/A   Clear
6:53 PM 64.9 °F - 43.0 °F 45% 29.84 in 10.0 mi NNE 12.7 mph - N/A   Clear
7:53 PM 59.0 °F - 43.0 °F 55% 29.84 in 10.0 mi NE 11.5 mph - N/A   Clear
8:53 PM 53.1 °F - 42.1 °F 66% 29.86 in 10.0 mi NNE 11.5 mph - N/A   Clear
9:53 PM 48.0 °F - 41.0 °F 77% 29.89 in 10.0 mi East 5.8 mph - N/A   Clear
10:53 PM 44.1 °F - 39.0 °F 82% 29.89 in 10.0 mi Calm Calm - N/A   Clear
11:53 PM 41.0 °F - 37.9 °F 89% 29.92 in 10.0 mi Calm Calm - N/A   Clear